SCP
1 0 0 0 0 0 1 1 1 1 0 1 1 0 0 0 0 0 0 0 1 1 0 0 0 0 0 0 0 0 0 0 0 0 0 0 0 0
1 0 0 0 0 0 1 1 1 1 0 0 1 0 0 0 0 0 0 0 0 1 0 0 0 0 0 0 0 0 1 0 0 0 0 0 0 0
0 0 0 0 0 0 1 1 1 1 0 0 1 0 0 0 0 0 0 0 0 0 0 0 0 0 0 0 0 0 1 0 0 0 0 0 0 0
0 0 0 0 0 0 1 1 1 1 0 1 1 0 0 0 0 0 0 0 0 0 0 0 0 0 0 0 0 0 0 0 0 0 0 0 0 0
0 0 0 0 0 0 0 1 1 0 0 1 1 0 0 0 0 0 0 0 0 0 0 0 0 0 0 0 0 0 0 0 0 0 0 0 0 0
0 0 0 0 0 0 1 1 1 0 0 0 0 0 0 0 0 0 0 0 0 0 0 0 0 0 0 0 0 0 0 0 0 0 0 0 0 0
0 0 0 0 0 0 1 1 1 0 0 0 0 0 0 0 0 0 0 0 0 0 0 0 0 0 0 0 0 0 0 0 0 0 0 0 0 0
0 0 0 0 0 0 1 1 0 0 0 0 0 0 0 0 0 0 0 0 0 0 0 0 0 0 0 0 0 0 0 0 0 0 0 0 0 0
0 0 0 0 0 0 1 0 0 0 0 0 0 0 0 0 0 0 0 0 0 0 0 0 0 0 0 0 0 0 0 0 0 0 0 0 0 0
0 0 0 0 0 0 0 0 0 0 0 0 0 0 0 0 0 0 0 0 0 0 0 0 0 0 0 0 0 0 0 0 0 0 0 0 0 0
0 0 0 0 0 0 0 0 0 0 0 0 0 0 0 0 0 0 0 0 0 0 0 0 0 0 0 0 0 0 0 0 0 0 0 0 0 0
0 0 0 0 0 0 0 0 0 0 0 0 0 0 0 0 0 0 0 0 0 0 0 0 0 0 0 0 0 0 0 0 0 0 0 0 0 0
0 0 0 0 0 0 0 0 0 0 0 0 0 0 0 0 0 0 0 0 0 0 0 0 0 0 0 0 0 0 0 0 0 0 0 0 0 0
0 0 0 0 0 0 0 0 0 0 0 0 0 0 0 0 0 0 0 0 0 0 0 0 0 0 0 0 0 0 0 0 0 0 0 0 0 0
0 0 0 0 0 0 0 0 0 0 0 0 0 0 0 0 0 0 0 0 0 0 0 0 0 0 0 0 0 0 0 0 0 0 0 0 0 0
0 0 0 0 0 0 0 0 0 0 0 0 0 0 0 0 0 0 0 0 0 0 0 0 0 0 0 0 0 0 0 0 0 0 0 0 0 0
0 0 0 0 0 0 0 0 0 0 0 0 0 0 0 0 0 0 0 0 0 0 0 0 0 0 0 0 0 0 0 0 0 0 0 0 0 0
0 0 0 0 0 0 0 0 0 0 0 0 0 0 0 0 0 0 0 0 0 0 0 0 0 0 0 0 0 0 0 0 0 0 0 0 0 0
0 0 0 0 0 0 0 0 0 0 0 0 0 0 0 0 0 0 0 0 0 0 0 0 0 0 0 0 0 0 0 0 0 0 0 0 0 0
0 0 0 0 0 0 0 0 0 0 0 0 0 0 0 0 0 0 0 0 0 0 0 0 0 0 0 0 0 0 0 0 0 0 0 0 0 0
0 0 0 0 0 0 0 0 0 0 0 0 0 0 0 0 0 0 0 0 0 0 0 0 0 0 0 0 0 0 0 0 0 0 0 0 0 0
0 0 0 0 0 0 0 0 0 0 0 0 0 0 0 0 0 0 0 0 0 0 0 0 0 0 0 0 0 0 0 0 0 0 0 0 0 0
0 0 0 0 0 0 0 0 0 0 0 0 0 0 0 0 0 0 0 0 0 0 0 0 0 0 0 0 0 0 0 0 0 0 0 0 0 0
Wind_Speed
9 9 8 7 6 6 5 5 5 6 7 5 4 6 6 6 9 8 8 13 13 12 11 10 9 8 7 6 6 5 4 4 4 5 6 7 8 9
8 9 9 7 7 6 6 6 5 5 6 5 4 4 6 6 9 8 8 12 13 13 12 10 10 9 8 6 6 5 4 3 3 4 5 6 8 9
10 10 10 9 8 7 6 6 6 5 5 4 3 3 6 6 6 6 6 7 7 12 12 11 10 9 8 7 5 5 4 3 2 3 4 6 7 9
11 10 11 9 10 8 7 8 7 6 5 5 4 4 5 7 7 7 6 6 6 10 11 11 10 9 8 7 6 4 4 2 2 2 3 5 7 9
11 11 11 10 10 8 9 8 7 6 5 5 4 3 3 5 5 5 5 4 5 7 10 9 10 9 9 8 7 5 3 2 1 1 2 5 6 8
10 11 11 11 11 10 9 9 7 7 6 5 5 4 4 5 5 5 4 4 4 4 5 6 8 9 9 9 7 5 4 2 1 1 2 4 5 7
9 10 11 12 14 11 9 9 9 7 6 6 6 4 4 6 6 5 5 4 3 3 4 3 4 4 5 7 7 5 4 3 1 0 2 3 5 7
10 9 9 11 12 13 13 12 12 11 9 8 7 7 7 5 5 6 6 5 3 3 4 3 3 3 3 3 5 6 4 3 2 0 2 3 5 6
9 8 8 8 11 9 10 10 10 13 13 10 9 9 8 8 8 8 7 6 4 4 4 3 2 3 2 4 6 5 4 4 2 1 2 3 5 6
8 7 7 8 9 9 8 7 7 7 9 8 7 7 6 7 8 7 7 6 5 3 3 3 2 2 2 2 5 5 4 4 3 2 3 4 5 6
6 6 6 6 9 11 8 8 7 5 5 8 8 7 8 10 9 7 7 7 4 2 1 3 2 2 2 1 2 4 5 4 3 2 3 4 5 5
3 4 7 7 8 11 10 9 9 7 6 6 6 6 5 7 10 8 8 8 6 3 2 3 3 3 2 1 1 1 2 2 2 3 3 4 5 3
2 2 3 5 7 9 10 8 10 8 7 7 6 5 4 4 5 4 5 6 6 4 5 5 4 3 3 2 1 0 1 1 1 1 2 4 5 4
2 1 1 3 3 5 7 9 11 9 6 6 6 5 5 5 5 5 6 6 5 5 6 6 4 4 4 3 2 0 1 1 1 1 1 3 4 5
1 1 1 1 2 3 8 11 10 7 7 7 7 6 5 6 6 6 7 8 9 7 6 5 5 5 4 4 3 2 1 1 1 1 1 1 1 1
1 2 2 1 2 4 6 6 5 5 6 7 7 6 6 6 6 6 6 7 7 6 6 6 6 6 5 4 4 3 2 1 0 1 1 1 2 2
1 1 1 2 2 3 3 4 4 5 6 6 7 7 7 7 6 5 6 6 6 6 5 4 6 6 6 5 4 3 3 2 1 1 2 2 1 2
2 2 1 2 3 3 4 4 4 5 6 6 7 7 7 7 7 6 6 7 8 7 6 5 5 5 4 5 5 3 3 2 1 2 2 2 1 2
2 2 2 2 2 3 4 4 4 4 5 6 7 7 7 7 8 7 7 7 7 6 5 4 3 4 5 3 3 4 2 2 2 2 2 1 1 2
2 2 2 2 3 4 4 4 5 5 5 6 7 7 7 7 8 7 7 8 8 7 6 3 3 3 4 4 3 1 3 2 2 2 1 1 2 2
2 2 2 3 4 4 4 4 5 5 6 6 6 7 7 7 7 7 7 10 8 7 6 4 3 5 5 5 5 3 2 3 2 2 1 1 2 2
2 2 2 3 4 4 4 4 5 6 6 6 6 6 6 7 8 9 8 8 7 7 6 5 4 4 4 5 5 4 2 3 4 5 3 2 1 1
2 2 2 3 3 4 4 5 6 6 5 6 6 6 6 7 7 7 8 7 8 8 8 6 4 4 4 5 5 4 4 3 2 3 4 5 4 3
Wind_Direction
224 226 225 219 218 222 216 205 200 225 235 228 216 205 194 188 183 186 188 190 190 193 193 191 192 194 199 205 214 219 232 247 264 279 288 298 307 313
223 225 228 220 217 217 213 214 215 212 236 229 226 207 190 188 184 184 186 183 188 192 192 190 189 190 190 195 208 211 221 236 255 278 293 305 313 317
225 223 226 219 216 213 212 211 215 211 225 242 229 196 188 181 176 180 180 181 186 191 192 190 187 187 187 189 197 201 201 213 245 274 296 309 317 321
225 222 225 221 217 213 211 213 214 211 206 220 220 202 197 183 175 177 179 180 181 188 190 189 186 184 184 182 178 179 184 193 225 274 302 315 320 322
226 224 224 220 218 213 209 209 212 210 202 203 213 208 197 180 172 175 172 172 176 179 185 186 183 179 178 175 171 167 173 182 205 278 315 322 326 330
229 228 224 219 211 209 210 206 205 201 196 199 202 198 197 178 172 176 175 171 171 162 168 171 174 172 173 171 168 166 165 169 184 283 326 335 338 336
236 233 227 219 213 212 213 203 200 199 195 198 200 196 198 181 185 180 177 155 147 151 149 165 162 167 172 172 168 164 161 166 171 267 334 343 343 340
241 236 229 217 213 216 217 216 209 202 199 200 202 196 202 190 179 173 163 156 172 164 145 160 151 162 172 172 164 158 161 167 165 131 359 358 350 344
240 230 230 217 210 205 207 213 217 216 210 206 198 200 196 191 178 177 175 163 157 156 137 153 156 165 165 158 151 151 159 160 145 88 31 11 357 350
237 226 224 214 204 199 196 203 209 215 209 207 203 199 192 180 178 176 159 129 102 115 131 142 157 150 132 139 147 149 153 145 127 82 38 17 5 358
241 225 218 209 199 191 190 195 199 201 193 187 186 179 171 167 161 151 149 144 146 158 139 126 137 117 98 101 131 142 145 137 115 73 39 19 12 8
251 224 220 215 197 193 192 191 195 192 174 163 165 164 166 161 159 167 166 161 152 155 169 133 136 120 108 62 87 151 147 135 99 61 37 25 22 25
263 247 219 209 208 203 199 197 190 178 167 161 157 156 150 147 150 149 154 159 153 147 158 137 131 120 120 121 76 60 112 114 111 64 46 29 26 33
268 270 230 208 221 208 191 173 168 168 164 156 155 157 154 149 139 128 116 102 99 122 141 135 132 144 133 122 131 69 41 68 83 68 31 20 25 20
286 276 252 215 194 172 163 165 166 169 163 158 155 152 150 147 135 122 109 99 86 84 101 102 116 128 121 129 132 129 101 28 41 57 44 31 3 8
55 86 67 65 99 117 143 157 162 162 159 152 145 141 138 135 132 133 130 123 104 83 68 79 101 116 108 102 115 118 108 122 59 32 46 24 12 16
54 83 79 79 80 99 114 126 137 144 141 138 137 136 136 134 130 128 125 118 115 119 102 76 74 83 86 101 108 105 102 89 91 69 62 46 8 2
74 93 95 99 107 114 118 120 125 131 134 132 132 133 137 137 129 120 116 117 120 120 118 114 111 97 79 53 54 107 101 92 83 61 65 75 19 351
81 91 106 103 102 109 108 109 110 116 125 129 129 129 128 128 127 126 124 121 120 120 119 124 125 123 118 108 36 36 102 103 87 66 48 55 18 325
69 98 113 109 107 107 106 107 111 112 112 118 123 125 127 127 126 127 130 128 125 122 116 111 120 129 132 133 125 46 36 107 115 98 50 23 0 342
38 54 88 106 110 110 105 105 110 111 109 110 115 122 125 126 125 127 126 125 121 122 124 121 109 107 105 101 95 77 30 34 87 127 115 67 24 14
43 60 80 97 107 109 107 107 108 107 109 108 111 115 119 123 127 128 129 128 122 118 112 109 109 102 95 104 106 108 81 39 44 54 67 97 118 91
43 59 86 92 104 109 111 112 112 112 112 112 112 112 113 117 119 121 122 119 116 116 114 112 101 88 88 99 106 104 94 74 53 48 30 25 43 50